OEFMV EHMZ-EHMZ

Flight info

Callsign OEFMV
Flight time N/A
Altitude 2000
Route DCT DEN BOSCH STAY1/0100 DEN BOSCH DCT
Aircraft DA62/L-SDFGRY/EB2

Departure

Time 2026-04-27 07:26
Airport Midden-Zeeland Airfield (EHMZ)

Arrival

Time N/A
Airport Midden-Zeeland Airfield (EHMZ)
Time Latitude Longitude Altitude Speed Heading
2026-04-27 07:16 51.51302 3.73028 10 ft 0 kts 180°
2026-04-27 07:22 51.51292 3.73027 10 ft 3 kts 184°
2026-04-27 07:23 51.51290 3.73027 10 ft 2 kts 189°
2026-04-27 07:23 51.51266 3.72947 10 ft 14 kts 262°
2026-04-27 07:23 51.51256 3.72765 10 ft 16 kts 268°
2026-04-27 07:23 51.51256 3.72623 10 ft 10 kts 271°
2026-04-27 07:24 51.51257 3.72543 11 ft 4 kts 227°
2026-04-27 07:24 51.51245 3.72548 10 ft 0 kts 110°
2026-04-27 07:25 51.51228 3.72555 10 ft 8 kts 179°
2026-04-27 07:25 51.51209 3.72568 10 ft 1 kts 84°
2026-04-27 07:25 51.51218 3.72921 12 ft 59 kts 90°
2026-04-27 07:25 51.51214 3.73746 135 ft 82 kts 90°
2026-04-27 07:26 51.51178 3.74753 345 ft 99 kts 89°
2026-04-27 07:26 51.51308 3.75817 709 ft 96 kts 41°
2026-04-27 07:26 51.51898 3.76402 1043 ft 103 kts 31°
2026-04-27 07:26 51.52478 3.77066 1399 ft 105 kts 44°
2026-04-27 07:27 51.53071 3.77919 1559 ft 125 kts 43°
2026-04-27 07:27 51.53762 3.78902 1519 ft 137 kts 48°
2026-04-27 07:27 51.54292 3.80139 1597 ft 135 kts 68°
2026-04-27 07:27 51.54565 3.81549 1680 ft 132 kts 72°
2026-04-27 07:28 51.54838 3.82968 1598 ft 135 kts 74°
2026-04-27 07:28 51.55113 3.84406 1564 ft 133 kts 72°
2026-04-27 07:28 51.55360 3.85809 1592 ft 129 kts 72°
2026-04-27 07:28 51.55583 3.87222 1465 ft 134 kts 77°
2026-04-27 07:29 51.55713 3.88711 1427 ft 133 kts 82°
2026-04-27 07:29 51.55818 3.90178 1358 ft 133 kts 82°
2026-04-27 07:29 51.55934 3.91654 1277 ft 134 kts 81°
2026-04-27 07:29 51.56092 3.93098 1228 ft 133 kts 77°
2026-04-27 07:30 51.56275 3.94525 1317 ft 126 kts 76°
2026-04-27 07:30 51.56489 3.95935 1259 ft 131 kts 76°
2026-04-27 07:30 51.56721 3.97378 1233 ft 140 kts 73°
2026-04-27 07:30 51.57048 3.98951 1093 ft 152 kts 69°
2026-04-27 07:31 51.57399 4.00534 1178 ft 148 kts 71°
2026-04-27 07:31 51.57697 4.02090 1288 ft 145 kts 72°
2026-04-27 07:31 51.57999 4.03662 1291 ft 149 kts 72°
2026-04-27 07:31 51.58309 4.05282 1165 ft 140 kts 73°
2026-04-27 07:32 51.58564 4.06585 1026 ft 115 kts 71°
2026-04-27 07:32 51.58808 4.07844 972 ft 117 kts 72°
2026-04-27 07:32 51.59051 4.09090 971 ft 119 kts 72°
2026-04-27 07:32 51.59083 4.10418 971 ft 121 kts 93°
2026-04-27 07:33 51.59026 4.11781 974 ft 123 kts 92°
2026-04-27 07:33 51.58965 4.13165 970 ft 125 kts 92°
2026-04-27 07:33 51.58908 4.14573 975 ft 127 kts 92°
2026-04-27 07:33 51.58849 4.15998 972 ft 128 kts 92°
2026-04-27 07:34 51.58810 4.17423 973 ft 128 kts 90°
2026-04-27 07:34 51.58786 4.18814 1079 ft 120 kts 91°
2026-04-27 07:34 51.58826 4.20113 1204 ft 114 kts 77°
2026-04-27 07:34 51.58989 4.21358 1254 ft 115 kts 77°
2026-04-27 07:35 51.59164 4.22648 1268 ft 121 kts 77°
2026-04-27 07:35 51.59339 4.24003 1266 ft 126 kts 77°
2026-04-27 07:35 51.59365 4.25423 1263 ft 128 kts 93°
2026-04-27 07:35 51.59305 4.26867 1262 ft 130 kts 92°
2026-04-27 07:36 51.59244 4.28312 1262 ft 129 kts 92°
2026-04-27 07:36 51.59185 4.29701 1264 ft 120 kts 92°
2026-04-27 07:36 51.59123 4.30996 1257 ft 114 kts 92°
2026-04-27 07:36 51.59083 4.31849 1257 ft 116 kts 92°
2026-04-27 07:37 51.59015 4.33141 1253 ft 115 kts 92°
2026-04-27 07:37 51.58955 4.34416 1263 ft 113 kts 92°
2026-04-27 07:37 51.58890 4.35673 1255 ft 112 kts 92°
2026-04-27 07:37 51.58828 4.36921 1256 ft 112 kts 92°
2026-04-27 07:38 51.58795 4.38166 1254 ft 111 kts 89°
2026-04-27 07:38 51.58777 4.39406 1254 ft 111 kts 89°
2026-04-27 07:38 51.58745 4.40621 1259 ft 108 kts 90°
2026-04-27 07:38 51.58708 4.41846 1260 ft 111 kts 90°
2026-04-27 07:39 51.58671 4.43086 1258 ft 111 kts 90°
2026-04-27 07:39 51.58639 4.44314 1261 ft 110 kts 90°
2026-04-27 07:39 51.58603 4.45552 1261 ft 111 kts 90°
2026-04-27 07:39 51.58570 4.46793 1263 ft 111 kts 90°
2026-04-27 07:40 51.58533 4.48042 1260 ft 112 kts 90°
2026-04-27 07:40 51.58498 4.49294 1262 ft 112 kts 90°
2026-04-27 07:40 51.58466 4.50551 1268 ft 113 kts 90°
2026-04-27 07:40 51.58436 4.51803 1262 ft 111 kts 90°
2026-04-27 07:41 51.58409 4.53067 1267 ft 115 kts 90°
2026-04-27 07:41 51.58381 4.54357 1264 ft 116 kts 90°
2026-04-27 07:41 51.58352 4.55650 1270 ft 117 kts 90°
2026-04-27 07:41 51.58317 4.56962 1266 ft 118 kts 90°
2026-04-27 07:42 51.58282 4.58274 1267 ft 117 kts 90°
2026-04-27 07:42 51.58249 4.59572 1268 ft 116 kts 90°
2026-04-27 07:42 51.58427 4.60799 1266 ft 115 kts 59°
2026-04-27 07:42 51.58850 4.61890 1271 ft 115 kts 57°
2026-04-27 07:43 51.59288 4.62980 1275 ft 117 kts 57°
2026-04-27 07:43 51.59727 4.64071 1277 ft 116 kts 57°
2026-04-27 07:43 51.60166 4.65155 1275 ft 116 kts 57°
2026-04-27 07:43 51.60606 4.66230 1268 ft 114 kts 57°
2026-04-27 07:44 51.61033 4.67285 1266 ft 112 kts 57°
2026-04-27 07:44 51.61464 4.68338 1271 ft 113 kts 57°
2026-04-27 07:44 51.61889 4.69392 1264 ft 112 kts 57°
2026-04-27 07:44 51.62314 4.70443 1266 ft 113 kts 57°
2026-04-27 07:45 51.62763 4.71550 1271 ft 123 kts 57°
2026-04-27 07:45 51.63243 4.72747 1279 ft 131 kts 58°
2026-04-27 07:45 51.63747 4.73994 1272 ft 134 kts 57°
2026-04-27 07:45 51.64257 4.75250 1275 ft 135 kts 57°
2026-04-27 07:46 51.64778 4.76529 1265 ft 137 kts 57°
2026-04-27 07:46 51.65300 4.77817 1265 ft 137 kts 57°